Overview Statistics Trail Chart Weather Telemetry Raw packets
 

This is the latest recevied weather packets stored in our database for station/object KN6DHD. If no packets are shown the sender has not sent any weather packets the latest 10 day(s).

<< 91 92 93 94 95 96 97 >>
Time Temp. Humidity Pressure Rain* Wind** Luminosity Snow
1777070844 23.33° C 53% 1011.4 hPa 0 mm - 482 W/m² -
1777070542 22.78° C 54% 1011.5 hPa 0 mm - 526 W/m² -
1777070241 22.78° C 55% 1012 hPa 0 mm - 565 W/m² -
1777069936 22.78° C 55% 1012 hPa 0 mm - 657 W/m² -
1777069636 21.67° C 57% 1012 hPa 0 mm - 723 W/m² -
1777069331 22.22° C 56% 1012.1 hPa 0 mm - 512 W/m² -
1777069028 22.22° C 56% 1012.2 hPa 0 mm - 489 W/m² -
1777068724 22.78° C 55% 1012.3 hPa 0 mm - 610 W/m² -
1777068419 22.22° C 56% 1012.2 hPa 0 mm - 687 W/m² -
1777068119 22.22° C 57% 1012.1 hPa 0 mm - 703 W/m² -
1777067814 21.67° C 58% 1012.4 hPa 0 mm - 696 W/m² -
1777067513 22.22° C 58% 1012.3 hPa 0 mm - 730 W/m² -
1777067212 21.67° C 57% 1012.5 hPa 0 mm - 661 W/m² -
1777066908 22.22° C 56% 1012.4 hPa 0 mm - 665 W/m² -
1777066602 22.78° C 55% 1012.4 hPa 0 mm - 709 W/m² -
1777066298 21.67° C 57% 1012.5 hPa 0 mm - 682 W/m² -
1777065993 22.22° C 55% 1012.5 hPa 0 mm - 660 W/m² -
1777065689 21.67° C 59% 1012.6 hPa 0 mm - 468 W/m² -
1777065384 21.11° C 59% 1012.6 hPa 0 mm - 641 W/m² -
1777065078 21.67° C 59% 1012.6 hPa 0 mm - 511 W/m² -
1777064777 21.11° C 60% 1012.9 hPa 0 mm - 495 W/m² -
1777064473 20° C 61% 1012.7 hPa 0 mm - 477 W/m² -
1777064169 20° C 64% 1012.9 hPa 0 mm - 269 W/m² -
1777063864 20° C 64% 1012.9 hPa 0 mm - 242 W/m² -
1777063559 20.56° C 62% 1013.1 hPa 0 mm - 484 W/m² -

* Rain latest hour (hover to see other rain measurements)
** Current wind speed in m/s (hover to see current wind gust speed)